GW4872 Weather Reports


time (UTC)temp
C
wind
direction
speed
KPH
gust
KPH
rain 1hr
cm
rain 24hr
cm
rain mn
cm
humidity
%
barometer
mb
20260906181433 33 193 6.4 9.7 0.00 0.00 0.00 60 1015.3
20260906180928 33 176 3.2 9.7 0.00 0.00 0.00 61 1015.1
20260906180423 32 177 3.2 12.9 0.00 0.00 0.00 62 1015.5
20260906175921 32 177 1.6 9.7 0.00 0.00 0.00 62 1015.4
20260906175416 31 146 1.6 3.2 0.00 0.00 0.00 65 1015.2
20260906174914 31 198 1.6 4.8 0.00 0.00 0.00 68 1015.6
20260906174414 31 185 1.6 3.2 0.00 0.00 0.00 68 1015.5
20260906173909 31 168 0.0 4.8 0.00 0.00 0.00 71 1015.7
20260906173404 31 180 6.4 12.9 0.00 0.00 0.00 70 1015.7
20260906172903 30 175 3.2 6.4 0.00 0.00 0.00 72 1015.8
20260906172355 31 198 6.4 9.7 0.00 0.00 0.00 71 1015.6
20260906171854 31 175 0.0 1.6 0.00 0.00 0.00 72 1015.8
20260906171349 30 172 1.6 4.8 0.00 0.00 0.00 72 1016.0
20260906170845 30 165 1.6 9.7 0.00 0.00 0.00 74 1016.0
20260906170341 30 166 0.0 3.2 0.00 0.00 0.00 74 1015.9
20260906165837 30 155 0.0 6.4 0.00 0.00 0.00 74 1016.0
20260906165331 30 176 0.0 3.2 0.00 0.00 0.00 74 1016.0
20260906164826 30 167 0.0 0.0 0.00 0.00 0.00 76 1016.2
20260906164325 29 170 0.0 3.2 0.00 0.00 0.00 78 1016.3
20260906163821 28 172 0.0 0.0 0.00 0.00 0.00 81 1016.2
20260906163318 27 159 1.6 6.4 0.00 0.00 0.00 83 1016.3
20260906162815 28 176 3.2 3.2 0.00 0.00 0.00 83 1016.5
20260906162314 27 170 0.0 0.0 0.00 0.00 0.00 83 1016.5
20260906161809 27 171 0.0 0.0 0.00 0.00 0.00 83 1016.5
20260906161308 27 172 0.0 0.0 0.00 0.00 0.00 84 1016.3
20260906160807 27 174 0.0 0.0 0.00 0.00 0.00 85 1016.7
20260906160301 27 174 0.0 1.6 0.00 0.00 0.00 85 1016.6
20260906155759 26 173 0.0 0.0 0.00 0.00 0.00 86 1016.6
20260906155254 26 173 0.0 0.0 0.00 0.00 0.00 86 1016.7
20260906154750 26 168 0.0 0.0 0.00 0.00 0.00 85 1016.6
20260906154244 26 177 1.6 3.2 0.00 0.00 0.00 84 1016.7
20260906153737 26 174 0.0 0.0 0.00 0.00 0.00 82 1016.4
20260906153231 26 174 0.0 4.8 0.00 0.00 0.00 83 1016.6
20260906152726 26 173 0.0 1.6 0.00 0.00 0.00 83 1016.6
20260906152220 27 181 3.2 4.8 0.00 0.00 0.00 83 1016.9
20260906151715 27 187 6.4 9.7 0.00 0.00 0.00 82 1016.8
20260906151211 27 203 8.0 12.9 0.00 0.00 0.00 79 1016.8
20260906150706 27 196 6.4 6.4 0.00 0.00 0.00 79 1016.0
20260906150201 28 169 0.0 1.6 0.00 0.00 0.00 79 1016.2
20260906145700 28 168 0.0 4.8 0.00 0.00 0.00 78 1016.0
20260906145200 28 173 0.0 9.7 0.00 0.00 0.00 78 1015.9
20260906144700 28 171 0.0 1.6 0.00 0.00 0.00 79 1015.7
20260906144154 28 169 0.0 3.2 0.00 0.00 0.00 80 1015.8
20260906143649 27 173 0.0 1.6 0.00 0.00 0.00 80 1015.8
20260906143147 27 170 0.0 0.0 0.00 0.00 0.00 81 1015.7
20260906142646 27 168 3.2 4.8 0.00 0.00 0.00 81 1015.9
20260906142141 27 169 0.0 3.2 0.00 0.00 0.00 81 1015.9
20260906141640 27 172 0.0 3.2 0.00 0.00 0.00 82 1016.2
20260906141135 27 169 0.0 1.6 0.00 0.00 0.00 82 1016.1
20260906140634 27 164 0.0 3.2 0.00 0.00 0.00 83 1016.0
20260906140129 26 127 1.6 4.8 0.00 0.00 0.00 83 1016.1
20260906135626 26 167 1.6 6.4 0.00 0.00 0.00 83 1016.3
20260906135122 26 166 0.0 3.2 0.00 0.00 0.00 84 1016.1
20260906134618 26 169 3.2 4.8 0.00 0.00 0.00 83 1016.1
20260906134113 27 171 1.6 4.8 0.00 0.00 0.00 83 1016.1
20260906133609 27 167 0.0 1.6 0.00 0.00 0.00 82 1016.2
20260906133103 27 178 1.6 4.8 0.00 0.00 0.00 82 1015.9
20260906132558 27 160 1.6 4.8 0.00 0.00 0.00 82 1016.1
20260906132054 27 170 0.0 1.6 0.00 0.00 0.00 81 1016.3
20260906131549 26 175 0.0 1.6 0.00 0.00 0.00 83 1015.8
20260906131044 26 143 3.2 4.8 0.00 0.00 0.00 84 1016.0
20260906130543 26 173 0.0 3.2 0.00 0.00 0.00 85 1016.2
20260906130039 26 163 0.0 0.0 0.00 0.00 0.00 85 1016.2
20260906125536 26 150 0.0 4.8 0.00 0.00 0.00 85 1016.0
20260906125030 26 171 0.0 1.6 0.00 0.00 0.00 86 1015.9
20260906124526 26 171 0.0 3.2 0.00 0.00 0.00 86 1016.0
20260906124021 26 170 0.0 0.0 0.00 0.00 0.00 86 1015.7
20260906123519 26 169 0.0 0.0 0.00 0.00 0.00 86 1015.7
20260906123015 26 170 0.0 1.6 0.00 0.00 0.00 86 1015.7
20260906122509 26 172 0.0 0.0 0.00 0.00 0.00 86 1015.5
20260906122005 26 173 0.0 0.0 0.00 0.00 0.00 86 1015.6
20260906121501 26 174 0.0 1.6 0.00 0.00 0.00 86 1015.6
20260906120957 25 170 0.0 0.0 0.00 0.00 0.00 86 1015.4
20260906120452 25 170 0.0 0.0 0.00 0.00 0.00 86 1015.5
20260906115949 25 171 0.0 1.6 0.00 0.00 0.00 86 1015.5
20260906115444 25 170 0.0 1.6 0.00 0.00 0.00 86 1015.3
20260906114944 25 174 0.0 0.0 0.00 0.00 0.00 86 1015.1
20260906114438 25 165 0.0 6.4 0.00 0.00 0.00 87 1015.1
20260906113935 25 170 0.0 0.0 0.00 0.00 0.00 87 1015.1
20260906113432 25 169 0.0 0.0 0.00 0.00 0.00 86 1014.9
20260906112929 25 173 0.0 1.6 0.00 0.00 0.00 86 1015.1
20260906112424 25 173 0.0 1.6 0.00 0.00 0.00 86 1015.1
20260906111920 26 172 0.0 0.0 0.00 0.00 0.00 85 1015.0
20260906111419 26 170 0.0 0.0 0.00 0.00 0.00 85 1015.2
20260906110914 26 169 1.6 3.2 0.00 0.00 0.00 85 1015.2
20260906110409 26 171 0.0 3.2 0.00 0.00 0.00 85 1015.1
20260906105908 26 168 1.6 1.6 0.00 0.00 0.00 85 1015.2
20260906105404 26 170 0.0 0.0 0.00 0.00 0.00 85 1015.0
20260906104900 26 170 0.0 0.0 0.00 0.00 0.00 85 1015.2
20260906104358 26 173 0.0 0.0 0.00 0.00 0.00 85 1015.2
20260906103857 26 171 0.0 0.0 0.00 0.00 0.00 85 1015.0
20260906103355 26 158 0.0 1.6 0.00 0.00 0.00 85 1015.0
20260906102852 26 176 3.2 3.2 0.00 0.00 0.00 85 1014.9
20260906102351 26 169 0.0 0.0 0.00 0.00 0.00 84 1014.8
20260906101845 26 172 0.0 0.0 0.00 0.00 0.00 85 1014.8
20260906101341 26 171 0.0 0.0 0.00 0.00 0.00 85 1014.7
20260906100837 26 169 0.0 1.6 0.00 0.00 0.00 85 1014.9
20260906100336 25 169 0.0 0.0 0.00 0.00 0.00 85 1014.7
20260906095831 25 172 0.0 0.0 0.00 0.00 0.00 85 1014.7
20260906095326 25 171 0.0 1.6 0.00 0.00 0.00 85 1014.8
20260906094825 25 172 0.0 0.0 0.00 0.00 0.00 85 1014.8
20260906094321 26 171 0.0 0.0 0.00 0.00 0.00 84 1014.8
20260906093817 26 171 0.0 0.0 0.00 0.00 0.00 84 1014.7
20260906093313 26 173 0.0 0.0 0.00 0.00 0.00 84 1014.7
20260906092807 26 171 0.0 0.0 0.00 0.00 0.00 83 1014.8
20260906092301 26 171 0.0 0.0 0.00 0.00 0.00 83 1014.7
20260906091757 26 170 0.0 0.0 0.00 0.00 0.00 82 1015.0
20260906091253 26 172 0.0 0.0 0.00 0.00 0.00 82 1014.8
20260906090749 26 173 0.0 0.0 0.00 0.00 0.00 82 1014.8
20260906090248 26 171 0.0 0.0 0.00 0.00 0.00 81 1014.9
20260906085748 26 165 0.0 3.2 0.00 0.00 0.00 81 1014.8
20260906085247 26 173 0.0 1.6 0.00 0.00 0.00 81 1014.7
20260906084742 26 172 0.0 3.2 0.00 0.00 0.00 81 1014.7
20260906084242 26 173 0.0 0.0 0.00 0.00 0.00 81 1014.9
20260906083737 26 172 0.0 1.6 0.00 0.00 0.00 82 1014.8
20260906083232 26 173 0.0 0.0 0.00 0.00 0.00 81 1014.5
20260906082727 26 172 0.0 1.6 0.00 0.00 0.00 81 1014.6
20260906082222 26 173 0.0 1.6 0.00 0.00 0.00 81 1014.7
20260906081719 26 178 0.0 0.0 0.00 0.00 0.00 81 1014.6
20260906081213 27 173 0.0 1.6 0.00 0.00 0.00 80 1014.6
20260906080710 27 175 0.0 0.0 0.00 0.00 0.00 80 1014.5
20260906080206 27 174 0.0 1.6 0.00 0.00 0.00 80 1014.4
20260906075705 27 177 1.6 3.2 0.00 0.00 0.00 80 1014.4
20260906075200 27 165 0.0 3.2 0.00 0.00 0.00 80 1014.4
20260906074655 27 165 1.6 4.8 0.00 0.00 0.00 80 1014.4
20260906074154 27 182 0.0 1.6 0.00 0.00 0.00 80 1014.5
20260906073650 27 167 0.0 4.8 0.00 0.00 0.00 80 1014.4
20260906073145 27 167 4.8 6.4 0.00 0.00 0.00 80 1014.3
20260906072640 27 168 0.0 6.4 0.00 0.00 0.00 80 1014.5
20260906072136 27 169 1.6 1.6 0.00 0.00 0.00 80 1014.4
20260906071632 27 167 0.0 1.6 0.00 0.00 0.00 80 1014.3
20260906071132 27 172 0.0 4.8 0.00 0.00 0.00 80 1014.5
20260906070629 27 173 0.0 1.6 0.00 0.00 0.00 80 1014.7
20260906070124 27 168 0.0 0.0 0.00 0.00 0.00 80 1014.7
20260906065624 27 171 0.0 3.2 0.00 0.00 0.00 80 1014.7
20260906065119 27 182 1.6 1.6 0.00 0.00 0.00 80 1014.7
20260906064614 27 171 0.0 1.6 0.00 0.00 0.00 80 1014.6
20260906064109 27 173 0.0 0.0 0.00 0.00 0.00 81 1014.6
20260906063605 27 170 0.0 0.0 0.00 0.00 0.00 81 1014.8
20260906063101 27 171 0.0 3.2 0.00 0.00 0.00 81 1014.9
20260906062556 27 172 0.0 0.0 0.00 0.00 0.00 81 1014.8
20260906062055 27 171 0.0 0.0 0.00 0.00 0.00 80 1014.8
20260906061552 27 176 0.0 0.0 0.00 0.00 0.00 80 1015.1
20260906061050 27 173 0.0 3.2 0.00 0.00 0.00 81 1015.0
20260906060547 27 169 0.0 0.0 0.00 0.00 0.00 81 1014.9
20260906060044 27 172 0.0 0.0 0.00 0.00 0.00 81 1014.7
20260906055540 27 185 0.0 0.0 0.00 0.00 0.00 81 1015.0
20260906055035 27 169 0.0 0.0 0.00 0.00 0.00 81 1014.9
20260906054535 27 170 0.0 0.0 0.00 0.00 0.00 80 1015.0
20260906054030 27 179 0.0 3.2 0.00 0.00 0.00 80 1015.0
20260906053527 27 165 0.0 6.4 0.00 0.00 0.00 80 1014.8
20260906053022 28 163 0.0 6.4 0.00 0.00 0.00 79 1015.0
20260906052518 28 193 0.0 6.4 0.00 0.00 0.00 79 1014.7
20260906052015 28 173 1.6 3.2 0.00 0.00 0.00 79 1014.9
20260906051510 28 171 0.0 0.0 0.00 0.00 0.00 78 1014.8
20260906051005 28 180 1.6 3.2 0.00 0.00 0.00 78 1014.8
20260906050500 28 171 0.0 4.8 0.00 0.00 0.00 77 1014.9
20260906045959 28 156 1.6 3.2 0.00 0.00 0.00 77 1014.8
20260906045458 28 176 0.0 1.6 0.00 0.00 0.00 77 1015.1
20260906044954 28 168 0.0 0.0 0.00 0.00 0.00 76 1015.0
20260906044449 28 177 0.0 1.6 0.00 0.00 0.00 76 1014.9
20260906043945 28 172 0.0 0.0 0.00 0.00 0.00 76 1014.9
20260906043441 28 170 0.0 3.2 0.00 0.00 0.00 75 1014.8
20260906042936 28 162 0.0 0.0 0.00 0.00 0.00 75 1015.1
20260906042435 28 173 0.0 0.0 0.00 0.00 0.00 75 1014.9
20260906041930 28 173 0.0 0.0 0.00 0.00 0.00 75 1014.9
20260906041427 28 171 0.0 0.0 0.00 0.00 0.00 75 1015.0
20260906040926 29 163 0.0 0.0 0.00 0.00 0.00 74 1014.9
20260906040421 29 173 0.0 0.0 0.00 0.00 0.00 74 1014.9
20260906035911 29 174 0.0 0.0 0.00 0.00 0.00 74 1015.0
20260906035406 29 174 0.0 0.0 0.00 0.00 0.00 73 1014.9
20260906034901 29 169 0.0 0.0 0.00 0.00 0.00 73 1014.8
20260906034356 29 171 0.0 0.0 0.00 0.00 0.00 73 1014.9
20260906033852 29 171 0.0 0.0 0.00 0.00 0.00 73 1014.9
20260906033351 30 163 0.0 0.0 0.00 0.00 0.00 73 1015.0
20260906032848 30 164 0.0 0.0 0.00 0.00 0.00 73 1014.6
20260906032343 30 168 0.0 0.0 0.00 0.00 0.00 73 1014.6
20260906031838 30 167 0.0 0.0 0.00 0.00 0.00 73 1014.7
20260906031334 30 170 0.0 0.0 0.00 0.00 0.00 73 1014.6
20260906030833 30 172 0.0 0.0 0.00 0.00 0.00 73 1014.7
20260906030329 30 174 0.0 0.0 0.00 0.00 0.00 73 1014.4
20260906025828 30 165 0.0 0.0 0.00 0.00 0.00 73 1014.3
20260906025322 30 173 0.0 1.6 0.00 0.00 0.00 73 1014.1
20260906024821 30 173 0.0 0.0 0.00 0.00 0.00 72 1013.9
20260906024315 30 165 0.0 0.0 0.00 0.00 0.00 72 1013.9
20260906023812 30 174 0.0 0.0 0.00 0.00 0.00 72 1013.7
20260906023307 30 183 0.0 0.0 0.00 0.00 0.00 72 1013.9
20260906022803 30 173 0.0 0.0 0.00 0.00 0.00 72 1014.1
20260906022257 30 174 0.0 0.0 0.00 0.00 0.00 72 1013.9
20260906021753 30 173 0.0 0.0 0.00 0.00 0.00 71 1013.7
20260906021252 30 160 0.0 0.0 0.00 0.00 0.00 71 1013.5
20260906020746 30 170 0.0 0.0 0.00 0.00 0.00 71 1013.6
20260906020246 31 177 1.6 3.2 0.00 0.00 0.00 71 1013.5
20260906015741 31 171 0.0 3.2 0.00 0.00 0.00 71 1013.2
20260906015239 31 169 0.0 1.6 0.00 0.00 0.00 71 1013.1
20260906014734 31 165 0.0 3.2 0.00 0.00 0.00 71 1013.2
20260906014224 31 170 0.0 0.0 0.00 0.00 0.00 71 1013.2
20260906013720 31 171 0.0 3.2 0.00 0.00 0.00 71 1012.9
20260906013220 31 170 0.0 0.0 0.00 0.00 0.00 71 1013.1
20260906012715 31 169 0.0 1.6 0.00 0.00 0.00 70 1012.9
20260906012210 31 170 0.0 0.0 0.00 0.00 0.00 69 1013.1
20260906011705 31 169 0.0 1.6 0.00 0.00 0.00 69 1013.1
20260906011200 31 171 0.0 0.0 0.00 0.00 0.00 69 1013.0
20260906010655 31 169 0.0 3.2 0.00 0.00 0.00 69 1012.8
20260906010152 31 171 0.0 0.0 0.00 0.00 0.00 68 1012.7
20260906005651 31 171 0.0 1.6 0.00 0.00 0.00 68 1012.7
20260906005151 31 170 0.0 3.2 0.00 0.00 0.00 68 1013.0
20260906004649 32 170 0.0 0.0 0.00 0.00 0.00 68 1012.7
20260906004144 32 170 0.0 0.0 0.00 0.00 0.00 67 1012.8
20260906003640 32 178 3.2 4.8 0.00 0.00 0.00 66 1012.9
20260906003136 32 172 0.0 0.0 0.00 0.00 0.00 66 1012.7
20260906002630 32 185 0.0 1.6 0.00 0.00 0.00 66 1012.8
20260906002125 32 165 0.0 4.8 0.00 0.00 0.00 65 1012.4
20260906001621 33 173 0.0 3.2 0.00 0.00 0.00 64 1012.4
20260906001120 33 165 1.6 3.2 0.00 0.00 0.00 63 1012.4
20260906000616 33 171 0.0 1.6 0.00 0.00 0.00 63 1012.4
20260906000112 33 172 0.0 3.2 0.00 0.00 0.00 62 1012.4
20260905235610 34 166 0.0 0.0 0.00 0.00 0.00 61 1012.4
20260905235106 34 168 0.0 3.2 0.00 0.00 0.00 61 1012.5
20260905234601 34 172 0.0 3.2 0.00 0.00 0.00 60 1012.6
20260905234056 35 159 1.6 9.7 0.00 0.00 0.00 60 1012.7
20260905233555 35 165 0.0 1.6 0.00 0.00 0.00 59 1012.6
20260905233051 35 170 0.0 3.2 0.00 0.00 0.00 58 1012.4
20260905232546 35 176 0.0 3.2 0.00 0.00 0.00 58 1012.5
20260905232041 35 178 0.0 4.8 0.00 0.00 0.00 58 1012.3
20260905231537 35 167 0.0 0.0 0.00 0.00 0.00 57 1012.4
20260905231033 35 174 1.6 3.2 0.00 0.00 0.00 57 1012.5
20260905230532 35 169 0.0 3.2 0.00 0.00 0.00 56 1012.4
20260905230030 35 165 1.6 3.2 0.00 0.00 0.00 57 1012.3
20260905225525 35 195 0.0 1.6 0.00 0.00 0.00 56 1012.6
20260905225020 35 169 0.0 0.0 0.00 0.00 0.00 57 1012.5
20260905224515 35 174 1.6 3.2 0.00 0.00 0.00 57 1012.5
20260905224015 35 129 3.2 6.4 0.00 0.00 0.00 56 1012.4
20260905223512 35 165 3.2 4.8 0.00 0.00 0.00 56 1012.4
20260905223008 35 172 0.0 4.8 0.00 0.00 0.00 56 1012.3
20260905222507 35 170 0.0 3.2 0.00 0.00 0.00 56 1012.2
20260905222002 35 172 0.0 4.8 0.00 0.00 0.00 56 1012.1
20260905221459 35 165 1.6 4.8 0.00 0.00 0.00 56 1012.2
20260905220955 35 210 6.4 14.5 0.00 0.00 0.00 55 1012.1
20260905220451 35 165 3.2 4.8 0.00 0.00 0.00 56 1012.1
20260905215949 35 183 1.6 4.8 0.00 0.00 0.00 55 1011.9
20260905215446 35 172 4.8 6.4 0.00 0.00 0.00 55 1012.0
20260905214942 35 163 1.6 4.8 0.00 0.00 0.00 54 1012.3
20260905214437 35 154 1.6 3.2 0.00 0.00 0.00 54 1012.4
20260905213937 36 163 3.2 6.4 0.00 0.00 0.00 53 1012.3
20260905213434 35 169 1.6 3.2 0.00 0.00 0.00 53 1012.4
20260905212928 35 150 3.2 4.8 0.00 0.00 0.00 53 1012.4
20260905212423 35 168 1.6 4.8 0.00 0.00 0.00 54 1012.4
20260905211922 35 166 1.6 6.4 0.00 0.00 0.00 54 1012.6
20260905211418 35 153 0.0 4.8 0.00 0.00 0.00 54 1012.6
20260905210915 35 168 0.0 9.7 0.00 0.00 0.00 54 1012.8
20260905210415 35 165 4.8 11.3 0.00 0.00 0.00 53 1012.8
20260905205914 36 89 4.8 6.4 0.00 0.00 0.00 52 1013.0
20260905205409 36 161 0.0 4.8 0.00 0.00 0.00 51 1013.1
20260905204908 36 172 0.0 4.8 0.00 0.00 0.00 52 1013.1
20260905204404 35 154 1.6 4.8 0.00 0.00 0.00 52 1013.3
20260905203903 35 170 1.6 4.8 0.00 0.00 0.00 52 1013.5
20260905203358 35 185 3.2 4.8 0.00 0.00 0.00 51 1013.7
20260905202854 35 144 3.2 6.4 0.00 0.00 0.00 51 1013.8
20260905202349 36 140 1.6 3.2 0.00 0.00 0.00 50 1013.8
20260905201845 36 161 0.0 12.9 0.00 0.00 0.00 50 1013.9
20260905201340 36 172 0.0 1.6 0.00 0.00 0.00 49 1013.8
20260905200839 36 161 0.0 1.6 0.00 0.00 0.00 51 1014.1
20260905200336 35 174 0.0 4.8 0.00 0.00 0.00 53 1014.3
20260905195833 35 177 0.0 4.8 0.00 0.00 0.00 53 1014.6
20260905195328 34 171 0.0 3.2 0.00 0.00 0.00 54 1014.6
20260905194825 35 79 3.2 14.5 0.00 0.00 0.00 52 1014.7
20260905194319 35 174 1.6 3.2 0.00 0.00 0.00 52 1014.9
20260905193818 35 167 0.0 3.2 0.00 0.00 0.00 52 1014.7
20260905193313 35 175 0.0 1.6 0.00 0.00 0.00 52 1014.6
20260905192809 35 169 0.0 1.6 0.00 0.00 0.00 52 1014.9
20260905192306 35 169 0.0 4.8 0.00 0.00 0.00 52 1014.9
20260905191804 34 176 0.0 1.6 0.00 0.00 0.00 54 1014.9
20260905191303 33 153 3.2 6.4 0.00 0.00 0.00 59 1014.9
20260905190801 34 128 8.0 11.3 0.00 0.00 0.00 58 1015.2
20260905190300 34 184 3.2 4.8 0.00 0.00 0.00 58 1015.2
20260905185759 33 172 0.0 4.8 0.00 0.00 0.00 59 1015.3
20260905185255 32 172 1.6 4.8 0.00 0.00 0.00 60 1015.5
20260905184753 32 176 9.7 12.9 0.00 0.00 0.00 61 1015.6
20260905184248 32 163 11.3 14.5 0.00 0.00 0.00 61 1015.9
20260905183746 32 135 8.0 20.9 0.00 0.00 0.00 60 1015.9
20260905183242 33 63 6.4 12.9 0.00 0.00 0.00 57 1016.2
20260905182736 33 196 3.2 6.4 0.00 0.00 0.00 59 1016.1
20260905182236 33 160 1.6 6.4 0.00 0.00 0.00 61 1016.0
20260905181731 31 151 4.8 12.9 0.00 0.00 0.00 64 1016.0